This is the latest recevied weather packets stored in our database for station/object KI5RAB. If no packets are shown the sender has not sent any weather packets the latest 10 day(s).
| Time | Temp. | Humidity | Pressure | Rain* | Wind** | Luminosity | Snow |
|---|---|---|---|---|---|---|---|
| 1777766413 | 22.78° C | 40% | 1022.8 hPa | 0 mm | - | 44 W/m² | - |
| 1777766109 | 23.33° C | 40% | 1022.7 hPa | 0 mm | - | 49 W/m² | - |
| 1777765808 | 23.33° C | 40% | 1022.9 hPa | 0 mm | - | 39 W/m² | - |
| 1777765503 | 23.33° C | 40% | 1023.2 hPa | 0 mm | - | 67 W/m² | - |
| 1777765201 | 23.33° C | 39% | 1022.7 hPa | 0 mm | - | 71 W/m² | - |
| 1777764896 | 23.33° C | 39% | 1022.6 hPa | 0 mm | - | 94 W/m² | - |
| 1777764593 | 23.89° C | 39% | 1022.8 hPa | 0 mm | - | 139 W/m² | - |
| 1777764290 | 23.33° C | 38% | 1022.9 hPa | 0 mm | - | 79 W/m² | - |
| 1777763986 | 23.89° C | 39% | 1022.8 hPa | 0 mm | - | 138 W/m² | - |
| 1777763684 | 23.89° C | 39% | 1022.7 hPa | 0 mm | - | 165 W/m² | - |
| 1777763382 | 23.89° C | 37% | 1023.1 hPa | 0 mm | - | 187 W/m² | - |
| 1777763079 | 23.89° C | 39% | 1022.9 hPa | 0 mm | - | 208 W/m² | - |
| 1777762777 | 23.89° C | 38% | 1022.9 hPa | 0 mm | - | 230 W/m² | - |
| 1777762473 | 23.89° C | 38% | 1022.7 hPa | 0 mm | - | 240 W/m² | - |
| 1777762170 | 24.44° C | 38% | 1022.8 hPa | 0 mm | - | 252 W/m² | - |
| 1777761866 | 24.44° C | 37% | 1022.7 hPa | 0 mm | - | 269 W/m² | - |
| 1777761563 | 23.89° C | 38% | 1022.8 hPa | 0 mm | - | 283 W/m² | - |
| 1777761261 | 24.44° C | 37% | 1022.5 hPa | 0 mm | - | 297 W/m² | - |
| 1777760959 | 23.89° C | 38% | 1022.7 hPa | 0 mm | - | 312 W/m² | - |
| 1777760656 | 23.89° C | 37% | 1022.8 hPa | 0 mm | - | 321 W/m² | - |
| 1777760356 | 23.89° C | 38% | 1022.8 hPa | 0 mm | - | 339 W/m² | - |
| 1777760054 | 23.89° C | 39% | 1022.5 hPa | 0 mm | - | 353 W/m² | - |
| 1777759751 | 23.89° C | 40% | 1023.1 hPa | 0 mm | - | 369 W/m² | - |
| 1777759446 | 24.44° C | 38% | 1022.7 hPa | 0 mm | - | 385 W/m² | - |
| 1777759143 | 24.44° C | 37% | 1022.9 hPa | 0 mm | - | 401 W/m² | - |
* Rain latest hour (hover to see other rain measurements)
** Current wind speed in m/s (hover to see current wind gust speed)